Location: Arran
(51.9410°N, 101.7372°W)
Time: 07:36:33
(UTC+00:00)

SWISSCUBE - Pass Details

Date: 21 May 2025
Orbit: 685 x 693 km, 98.4° (Epoch: 20 June)

Event Time Altitude Azimuth Distance (km) Brightness Sun altitude
Rises 04:54:37 0° 23° (NNE) 3,078 ? -14.0°
Reaches altitude 10° 04:57:10 10° 35° (NE) 2,157 ? -14.2°
Maximum altitude 05:01:13 28° 94° (E) 1,299 ? -14.4°
Enters shadow 05:03:12 21° 133° (SE) 1,546 ? -14.6°
